User: anonymous   Login
Location: downtown San Diego
(32.7310°N, 117.1990°W)
Time: 14:11:35
(UTC-07:00)
Language:

ATLAS CENTAUR R/B - Orbit

View from above orbital plane
View from above orbital plane
View from above satellite
View from above satellite

Ground track
Ground track

The orbit data is extracted from the following two-line orbital elements,

1 38770U 12048N   19281.79520874 0.00000550  00000-0  33807-4 0    01
2 38770  64.6551 238.4903 0177477 219.7362 140.2638 14.97536744    00
Epoch (UTC): 08 October 2019 19:05:06
Eccentricity: 0.0177477
inclination: 64.6551°
perigee height: 451 km
apogee height: 698 km
right ascension of ascending node: 238.4903°
argument of perigee: 219.7362°
revolutions per day: 14.97536744
mean anomaly at epoch: 140.2638°
orbit number at epoch: 0

The dashed part of the orbit path shows where the satellite is in the earth's shadow,  

DLR